Lid_Strength_Index
7 6 6 8 9 8 10 11 11 10 9 7 7 7 6 6 6 5 4 4 4 3 2 2 2 2 1 1 1 1 1 0
8 6 7 7 7 9 9 14 14 11 12 10 9 8 7 7 6 5 4 4 4 3 3 2 2 1 1 1 1 1 0 0
7 8 8 8 8 9 9 10 12 13 10 8 8 7 8 7 6 5 5 4 4 3 2 2 2 1 1 1 1 1 0 0
9 8 8 7 8 8 10 13 11 11 10 6 6 6 6 6 6 5 4 4 3 3 3 2 2 2 1 1 1 1 0 0
10 8 7 8 8 8 8 9 12 12 10 6 6 6 5 6 5 5 4 4 3 3 3 3 2 2 2 1 1 0 -0 0
10 9 8 9 9 8 8 11 11 10 9 7 6 6 6 5 5 5 5 4 4 3 3 2 2 2 1 1 0 0 0 0
9 9 8 8 9 9 9 9 10 9 9 7 6 6 6 5 5 5 5 4 4 4 3 2 2 2 1 1 0 0 1 1
10 9 8 9 8 8 9 9 9 9 9 6 5 5 6 6 6 6 5 4 4 3 3 2 2 2 1 1 1 0 1 1
11 9 9 11 9 8 8 8 8 9 7 6 6 6 6 6 5 5 5 4 4 3 2 2 2 1 1 1 1 1 1 1
12 10 14 9 8 7 7 7 7 7 7 7 6 6 5 4 5 5 4 4 3 2 2 2 1 1 1 1 1 1 1 1
12 12 10 9 8 8 8 8 7 7 7 7 6 5 6 4 3 3 3 3 2 2 2 1 1 1 1 1 1 1 1 1
11 13 14 9 7 5 6 10 6 6 7 7 6 9 7 4 3 3 3 2 2 2 1 1 1 1 1 2 2 2 1 1
11 12 10 7 7 5 11 9 6 6 6 6 7 6 4 3 3 2 2 2 2 1 2 1 1 1 2 2 2 1 1 1
11 12 13 6 6 9 7 6 5 5 5 5 5 4 4 4 3 3 3 2 2 2 2 1 1 1 2 2 1 1 1 1
9 9 7 6 6 5 5 5 5 5 4 4 4 4 4 4 3 3 3 2 2 2 2 1 1 1 2 1 1 1 1 1
9 8 7 6 5 4 4 4 4 3 4 3 4 4 4 3 3 3 3 3 2 2 2 2 1 1 1 1 0 1 1 1
9 7 6 6 5 4 4 4 4 3 3 4 4 4 4 4 3 3 3 2 2 2 2 2 1 1 1 1 1 2 2 2
9 6 6 6 4 4 4 4 4 4 4 3 3 4 3 3 3 3 3 2 3 2 2 2 2 2 1 1 1 2 2 2
6 4 5 4 4 3 4 4 3 3 3 3 3 3 3 3 3 3 3 2 3 3 2 2 1 1 1 2 1 1 2 2